Hourly Weather Rudnya-Mykolaivka

Today, 16 June, Wednesday

Time Temperature Precipitation Wind Pressure Humidity
00:00 +15°C° 0 mm 2 mps 743 mmHg 92%
01:00 +15°C° 0 mm 2 mps 743 mmHg 91%
02:00 +13°C° 0 mm 3 mps 743 mmHg 90%
03:00 +13°C° 0 mm 3 mps 743 mmHg 90%
04:00 +14°C° 0 mm 2 mps 743 mmHg 90%
05:00 +14°C° 0 mm 2 mps 743 mmHg 90%
06:00 +16°C° 0 mm 3 mps 743 mmHg 85%
07:00 +18°C° 0 mm 3 mps 744 mmHg 79%
08:00 +20°C° 0 mm 4 mps 744 mmHg 73%
09:00 +21°C° 0.1 mm 4 mps 744 mmHg 69%
10:00 +23°C° 0.1 mm 4 mps 744 mmHg 64%
11:00 +25°C° 0.1 mm 4 mps 744 mmHg 59%
12:00 +25°C° 0.2 mm 4 mps 744 mmHg 59%
13:00 +25°C° 0.2 mm 4 mps 744 mmHg 59%
14:00 +25°C° 0.2 mm 4 mps 744 mmHg 59%
15:00 +25°C° 0.3 mm 4 mps 744 mmHg 64%
16:00 +23°C° 0.3 mm 4 mps 744 mmHg 69%
17:00 +22°C° 0.3 mm 4 mps 744 mmHg 74%
18:00 +21°C° 0.2 mm 4 mps 744 mmHg 78%
19:00 +20°C° 0.2 mm 3 mps 745 mmHg 82%
20:00 +18°C° 0.2 mm 3 mps 745 mmHg 87%
21:00 +17°C° 0 mm 3 mps 745 mmHg 87%
22:00 +17°C° 0 mm 3 mps 745 mmHg 88%
23:00 +16°C° 0 mm 3 mps 745 mmHg 88%

Tomorrow, 17 June, Thursday

Time Temperature Precipitation Wind Pressure Humidity
00:00 +15°C° 0 mm 2 mps 746 mmHg 89%
01:00 +15°C° 0 mm 2 mps 746 mmHg 90%
02:00 +14°C° 0 mm 2 mps 746 mmHg 91%
03:00 +15°C° 0 mm 2 mps 746 mmHg 91%
04:00 +15°C° 0 mm 2 mps 746 mmHg 92%
05:00 +15°C° 0 mm 2 mps 746 mmHg 92%
06:00 +17°C° 0 mm 3 mps 747 mmHg 85%
07:00 +19°C° 0 mm 3 mps 747 mmHg 77%
08:00 +20°C° 0 mm 4 mps 747 mmHg 70%
09:00 +22°C° 0 mm 4 mps 748 mmHg 67%
10:00 +23°C° 0 mm 4 mps 748 mmHg 63%
11:00 +26°C° 0 mm 3 mps 748 mmHg 60%
12:00 +26°C° 0 mm 4 mps 748 mmHg 58%
13:00 +27°C° 0 mm 4 mps 748 mmHg 56%
14:00 +27°C° 0 mm 4 mps 748 mmHg 54%
15:00 +27°C° 0 mm 4 mps 748 mmHg 57%
16:00 +27°C° 0 mm 4 mps 748 mmHg 60%
17:00 +26°C° 0 mm 3 mps 748 mmHg 64%
18:00 +24°C° 0 mm 3 mps 748 mmHg 70%
19:00 +22°C° 0 mm 3 mps 748 mmHg 76%
20:00 +20°C° 0 mm 2 mps 748 mmHg 82%
21:00 +19°C° 0 mm 2 mps 749 mmHg 84%
22:00 +18°C° 0 mm 2 mps 749 mmHg 86%
23:00 +17°C° 0 mm 3 mps 749 mmHg 88%

Day after tomorrow, 18 June, Friday

Time Temperature Precipitation Wind Pressure Humidity
00:00 +17°C° 0 mm 2 mps 749 mmHg 91%
01:00 +17°C° 0 mm 2 mps 749 mmHg 93%
02:00 +16°C° 0 mm 2 mps 749 mmHg 95%
03:00 +16°C° 0 mm 2 mps 749 mmHg 95%
04:00 +16°C° 0 mm 2 mps 749 mmHg 94%
05:00 +15°C° 0 mm 2 mps 750 mmHg 93%
06:00 +17°C° 0 mm 3 mps 750 mmHg 86%
07:00 +19°C° 0 mm 4 mps 750 mmHg 78%
08:00 +20°C° 0 mm 4 mps 750 mmHg 71%
09:00 +22°C° 0 mm 4 mps 750 mmHg 66%
10:00 +23°C° 0 mm 4 mps 750 mmHg 62%
11:00 +25°C° 0 mm 4 mps 750 mmHg 58%
12:00 +26°C° 0 mm 4 mps 750 mmHg 55%
13:00 +26°C° 0 mm 4 mps 749 mmHg 53%
14:00 +27°C° 0 mm 4 mps 749 mmHg 50%
15:00 +27°C° 0 mm 4 mps 749 mmHg 53%
16:00 +26°C° 0 mm 4 mps 749 mmHg 56%
17:00 +26°C° 0 mm 4 mps 749 mmHg 58%
18:00 +23°C° 0 mm 4 mps 749 mmHg 66%
19:00 +22°C° 0 mm 3 mps 749 mmHg 74%
20:00 +20°C° 0 mm 3 mps 749 mmHg 82%
21:00 +19°C° 0 mm 3 mps 749 mmHg 86%
22:00 +18°C° 0 mm 2 mps 749 mmHg 89%
23:00 +17°C° 0 mm 2 mps 750 mmHg 92%

19 June, Saturday

Time Temperature Precipitation Wind Pressure Humidity
00:00 +17°C° 0 mm 2 mps 750 mmHg 93%
01:00 +17°C° 0 mm 2 mps 750 mmHg 93%
02:00 +17°C° 0 mm 2 mps 750 mmHg 93%
03:00 +17°C° 0 mm 2 mps 750 mmHg 94%
04:00 +17°C° 0 mm 2 mps 750 mmHg 94%
05:00 +17°C° 0 mm 2 mps 750 mmHg 95%
06:00 +18°C° 0 mm 3 mps 750 mmHg 88%
07:00 +20°C° 0 mm 3 mps 750 mmHg 82%
08:00 +22°C° 0 mm 3 mps 750 mmHg 75%
09:00 +23°C° 0 mm 4 mps 750 mmHg 71%
10:00 +25°C° 0 mm 4 mps 750 mmHg 66%
11:00 +26°C° 0 mm 4 mps 749 mmHg 62%
12:00 +27°C° 0 mm 4 mps 749 mmHg 59%
13:00 +27°C° 0 mm 4 mps 749 mmHg 56%
14:00 +28°C° 0 mm 4 mps 749 mmHg 53%
15:00 +27°C° 0.1 mm 4 mps 749 mmHg 57%
16:00 +27°C° 0.1 mm 4 mps 748 mmHg 61%
17:00 +26°C° 0.1 mm 4 mps 748 mmHg 65%
18:00 +25°C° 0.1 mm 3 mps 748 mmHg 72%
19:00 +22°C° 0.1 mm 3 mps 749 mmHg 79%
20:00 +21°C° 0.1 mm 2 mps 749 mmHg 86%
21:00 +20°C° 0 mm 2 mps 749 mmHg 88%
22:00 +19°C° 0 mm 2 mps 749 mmHg 91%
23:00 +18°C° 0 mm 2 mps 749 mmHg 93%

20 June, Sunday

Time Temperature Precipitation Wind Pressure Humidity
00:00 +18°C° 0 mm 2 mps 749 mmHg 94%
01:00 +17°C° 0 mm 2 mps 749 mmHg 95%
02:00 +17°C° 0 mm 2 mps 749 mmHg 96%
03:00 +17°C° 0 mm 2 mps 749 mmHg 95%
04:00 +17°C° 0 mm 2 mps 749 mmHg 95%
05:00 +17°C° 0 mm 2 mps 749 mmHg 95%
06:00 +18°C° 0 mm 2 mps 749 mmHg 88%
07:00 +20°C° 0 mm 3 mps 749 mmHg 82%
08:00 +22°C° 0 mm 3 mps 749 mmHg 75%
09:00 +24°C° 0 mm 3 mps 749 mmHg 71%
10:00 +25°C° 0 mm 3 mps 749 mmHg 67%
11:00 +26°C° 0 mm 3 mps 749 mmHg 62%
12:00 +27°C° 0 mm 4 mps 748 mmHg 60%
13:00 +28°C° 0 mm 4 mps 748 mmHg 58%
14:00 +28°C° 0 mm 4 mps 748 mmHg 56%
15:00 +28°C° 0 mm 3 mps 748 mmHg 58%
16:00 +28°C° 0 mm 3 mps 747 mmHg 60%
17:00 +27°C° 0 mm 3 mps 747 mmHg 62%
18:00 +26°C° 0 mm 3 mps 747 mmHg 68%
19:00 +24°C° 0 mm 3 mps 747 mmHg 75%
20:00 +21°C° 0 mm 2 mps 747 mmHg 81%
21:00 +20°C° 0 mm 2 mps 747 mmHg 84%
22:00 +19°C° 0 mm 2 mps 747 mmHg 87%
23:00 +18°C° 0 mm 2 mps 747 mmHg 90%

21 June, Monday

Time Temperature Precipitation Wind Pressure Humidity
00:00 +18°C° 0 mm 2 mps 747 mmHg 91%
01:00 +17°C° 0 mm 2 mps 747 mmHg 92%
02:00 +17°C° 0 mm 2 mps 747 mmHg 94%
03:00 +17°C° 0 mm 2 mps 747 mmHg 94%
04:00 +17°C° 0 mm 2 mps 746 mmHg 94%
05:00 +17°C° 0 mm 2 mps 746 mmHg 93%
06:00 +19°C° 0 mm 3 mps 746 mmHg 86%
07:00 +21°C° 0 mm 3 mps 746 mmHg 79%
08:00 +22°C° 0 mm 4 mps 746 mmHg 72%
09:00 +25°C° 0 mm 4 mps 746 mmHg 66%
10:00 +26°C° 0 mm 4 mps 746 mmHg 60%
11:00 +28°C° 0 mm 4 mps 745 mmHg 54%
12:00 +28°C° 0 mm 5 mps 745 mmHg 52%
13:00 +29°C° 0 mm 5 mps 745 mmHg 50%
14:00 +30°C° 0 mm 5 mps 744 mmHg 48%
15:00 +30°C° 0 mm 5 mps 744 mmHg 52%
16:00 +29°C° 0 mm 5 mps 744 mmHg 55%
17:00 +29°C° 0 mm 5 mps 744 mmHg 58%
18:00 +27°C° 0.1 mm 4 mps 744 mmHg 65%
19:00 +25°C° 0.1 mm 3 mps 743 mmHg 72%
20:00 +22°C° 0.1 mm 3 mps 743 mmHg 78%
21:00 +22°C° 0 mm 3 mps 743 mmHg 82%
22:00 +21°C° 0 mm 3 mps 743 mmHg 85%
23:00 +20°C° 0 mm 3 mps 743 mmHg 89%
Show more